Terug naar catalogus

BREEZE-M DEB

TANK

ActiefHEO
NORAD 41193·DEBRIS·🇷🇺 Russia

Gelanceerd Dec 24, 2015 vanaf Baikonur Cosmodrome

Loading…

Volgende Passages (komende 24 uur)

TLE

VersSource: Space-Track

Epoch: Sep 11, 2026, 09:07 UTC

1 41193U 15082C   26254.37989553  .00004453  00000-0  89774-3 0  9996
2 41193  49.5579 321.4350 5203297  13.6273 356.3528  5.27669775202175

Volg BREEZE-M DEB in realtime met AllMySat

Download on the App Store